Home > Weather > Grenoble > Past weeks

Flag for France Past Weather in Grenoble, Rhône-Alpes, France — Yesterday and Last 2 Weeks

Now
79 °F

Broken clouds.


Feels Like: 80 °F
Forecast: 65 / 79 °F
Wind: 15 mph from North

Location: Grenoble / St. Geoirs

Current Time: Jul 23, 2016 at 5:06:54 PM

Latest Report: Jul 23, 2016 at 4:30 PM


Visibility: N/A

Pressure: 30.07 "Hg

Humidity: 58%

Dew Point: 63 °F

Location of GrenobleLocation

Past Weather in Grenoble — Graph

°F

Grenoble Temperature Yesterday

Maximum temperature yesterday: 79 °F (at 2:00 PM)
Minimum temperature yesterday: 66 °F (at 3:00 AM)
Average temperature yesterday: 70 °F

High & Low Weather Summary for the Past Weeks

 TemperatureHumidityPressure
High91 °F (Jul 10, 5:00 PM)100% (Jul 12, 12:00 AM)30.27 "Hg (Jul 12, 12:00 AM)
Low45 °F (Jul 14, 5:30 AM)31% (Jul 20, 4:30 PM)29.95 "Hg (Jul 10, 5:30 PM)
Average69 °F69%30.11 "Hg
* Reported Jul 8 4:00 PM — Jul 23 4:00 PM, Grenoble, Weather by CustomWeather, © 2016

Note: Actual official high and low records may vary slightly from our data, if they occured in-between our weather recording intervals... More about our weather records

Advertising

Grenoble Weather History for the Previous 24 Hours

Scroll right to see more
 ConditionsComfort  
Time TempWeatherWind HumidityBarometerVisibility
4:00 PM
Sat, Jul 23
77 °FPartly sunny.13 mph61%30.07 "HgN/A
3:30 PM77 °FBroken clouds.13 mph61%30.07 "HgN/A
3:00 PM77 °FPartly sunny.6 mph61%30.07 "HgN/A
2:30 PM75 °FBroken clouds.6 mph65%30.09 "HgN/A
2:00 PM73 °FOvercast.5 mph69%30.09 "HgN/A
1:30 PM73 °FBroken clouds.8 mph69%30.09 "HgN/A
1:00 PM72 °FOvercast.8 mph73%30.09 "HgN/A
12:30 PM72 °FMostly cloudy.6 mph73%30.07 "HgN/A
12:00 PM72 °FMostly cloudy.8 mph73%30.09 "HgN/A
11:30 AM70 °FMostly cloudy.9 mph78%30.09 "HgN/A
11:00 AM70 °FOvercast.7 mph78%30.09 "HgN/A
10:30 AM70 °FCloudy.8 mph78%30.07 "HgN/A
10:00 AM70 °FMostly cloudy.6 mph78%30.07 "HgN/A
9:30 AM68 °FMostly cloudy.7 mph83%30.07 "HgN/A
9:00 AM68 °FOvercast.7 mph83%30.07 "HgN/A
8:30 AM66 °FBroken clouds.6 mph88%30.07 "HgN/A
8:00 AM66 °FMore clouds than sun.6 mph88%30.07 "HgN/A
7:30 AM64 °FMostly cloudy.2 mph94%30.07 "HgN/A
7:00 AM64 °FMostly cloudy.3 mph94%30.07 "Hg4 mi
6:30 AM64 °FPassing clouds.No wind94%30.04 "Hg4 mi
6:00 AM64 °FOvercast.3 mph94%30.07 "Hg5 mi
5:30 AM64 °FOvercast.No wind94%30.04 "Hg5 mi
5:00 AM64 °FOvercast.No wind94%30.04 "HgN/A
4:30 AM64 °FMostly cloudy.2 mph94%30.07 "HgN/A
4:00 AM64 °FMostly cloudy.3 mph94%30.07 "HgN/A
3:30 AM64 °FMostly cloudy.2 mph94%30.07 "HgN/A
3:00 AM64 °FMostly cloudy.2 mph94%30.07 "HgN/A
2:30 AM64 °FOvercast.3 mph94%30.07 "HgN/A
2:00 AM64 °FMostly cloudy.3 mph94%30.07 "HgN/A
1:30 AM66 °FOvercast.2 mph88%30.07 "HgN/A
1:00 AM66 °FOvercast.2 mph88%30.07 "HgN/A
12:30 AM66 °FOvercast.5 mph88%30.07 "HgN/A
12:00 AM66 °FMostly cloudy.5 mph88%30.07 "HgN/A
11:30 PM
Fri, Jul 22
66 °FMostly cloudy.2 mph88%30.07 "HgN/A
11:00 PM66 °FMostly cloudy.2 mph88%30.07 "HgN/A
10:30 PM66 °FPassing clouds.3 mph88%30.04 "HgN/A
10:00 PM66 °FMostly cloudy.2 mph88%30.04 "HgN/A
9:30 PM66 °FBroken clouds.2 mph88%30.04 "HgN/A
9:00 PM66 °FMostly cloudy.3 mph94%30.07 "HgN/A
8:30 PM68 °FLight rain. Partly sunny.2 mph88%30.04 "HgN/A
8:00 PM68 °FLight rain. Broken clouds.1 mph88%30.04 "HgN/A
7:30 PM70 °FPartly sunny.6 mph83%30.04 "HgN/A
7:00 PM70 °FBroken clouds.5 mph83%30.04 "HgN/A
6:30 PM70 °FMostly cloudy.5 mph83%30.04 "HgN/A
6:00 PM70 °FBroken clouds.2 mph83%30.04 "HgN/A
5:30 PM70 °FBroken clouds.8 mph83%30.04 "HgN/A
5:00 PM70 °FThunderstorms. Broken clouds.6 mph88%30.04 "HgN/A
Weather by CustomWeather, © 2016

See weather overviewHow to use our weather pages